FENGYUN 1C DEB

Satellite information

Favourite Embed

Satellite Type and Status

DEBRISIN ORBIT

Key statistics

Satellite FENGYUN 1C DEB at a glance.

Uptime

9610

Days in orbit

Revolutions

≈ 14.3

Per day

Orbit

SSO

Sun Synchronous Orbit

Inclination

99.5

Latest

Satellite identification and parameters

Extended collection of information and parameters for FENGYUN 1C DEB.

Object identification

Identified? True

Debris? True

Object name: FENGYUN 1C DEB

International designator: 1999-025CRC

Object number (NORAD): 32110

Object ID (CCSDS): 32110

Country: PEOPLES REPUBLIC OF CHINA (PRC)

Current information (Y/N): Y

RCS size: SMALL

Orbital parameters

Period: 100.866 minutes

Inclination: 99.5408 deg

SMA: 7177.781 km

Apoapsis: 823.652 km

Periapsis: 775.64 km

RAAN: 38.6728 deg

Eccentricy: 0.00334448

Argument of periapsis: 312.9902 deg

Mean anomaly: 76.257 deg

Mean motion: 14.27635932 rev/day

Mean motion (dot): 0.00003734 rev/day2

B* drag term: 0.0015271974 1/REarth

Two-line elements (TLE)

Creation date: Aug. 27, 2025, 8:01 p.m.

Reference frame: TEME

Reference center: EARTH

Epoch: Aug. 27, 2025, 9:43 a.m. UTC

TLE line 0: 0 FENGYUN 1C DEB

TLE line 1: 1 32110U 99025CRC 25239.40544280 .00003734 00000-0 15272-2 0 9996

TLE line 2: 2 32110 99.5408 38.6728 0033445 312.9902 76.2570 14.27635932628569

Live tracking on map

Real-time ground track for satellite FENGYUN 1C DEB.

In-orbit conjunctions

A list of the most updated potential collisions computed for object FENGYUN 1C DEB.

Target Orbit TCA Probability of collision Miss distance Type
THORAD AGENA D DEB SSO 2025-05-05 13:02:20 0.0005176488 70.0 (m) DEBRIS
EXPLORER 30 LEO 2024-12-24 05:37:47 0.0001171725 177.0 (m) PAYLOAD

Associated space launch

Chinese polar orbiting meteorological satellite

FENGYUN 1C DEB was lifted into orbit during the mission ‘Long March 4B | Feng Yun 1C’, on board a Long March 4B space rocket.

The launch took place on May 10, 1999, 1:33 a.m. from Launch Complex 7.

For more information about the launch, click the button.

Launch to space Long March 4B | Feng Yun 1C
Long March 4B | Feng Yun 1C

Agency: N/A

Status: Launch Successful

Launch date: May 10, 1999, 1:33 a.m. UTC

Rocket: Long March 4B

Launch pad: Launch Complex 7

Location: Taiyuan Satellite Launch Center, People's Republic of China

...

Latest news about this satellite

There are no fresh news available about this satellite. Check back as we update our databases every day.


Newsletter sign-up

Weekly statistics, charts and insights to help you stay on top of the space industry.